Year,Month,Day,Hour,Minute,Value (Times are PST for temperature in C)
2020,12,05,00,00,2.20
2020,12,05,00,01,2.20
2020,12,05,00,02,2.20
2020,12,05,00,03,2.30
2020,12,05,00,04,2.30
2020,12,05,00,05,2.30
2020,12,05,00,06,2.30
2020,12,05,00,07,2.30
2020,12,05,00,08,2.30
2020,12,05,00,09,2.30
2020,12,05,00,10,2.30
2020,12,05,00,11,2.20
2020,12,05,00,12,2.20
2020,12,05,00,13,2.20
2020,12,05,00,14,2.20
2020,12,05,00,15,2.20
2020,12,05,00,16,2.20
2020,12,05,00,17,2.20
2020,12,05,00,18,2.20
2020,12,05,00,19,2.20
2020,12,05,00,20,2.20
2020,12,05,00,21,2.30
2020,12,05,00,22,2.30
2020,12,05,00,23,2.30
2020,12,05,00,24,2.30
2020,12,05,00,25,2.30
2020,12,05,00,26,2.30
2020,12,05,00,27,2.30
2020,12,05,00,28,2.30
2020,12,05,00,29,2.20
2020,12,05,00,30,2.20
2020,12,05,00,31,2.20
2020,12,05,00,32,2.20
2020,12,05,00,33,2.20
2020,12,05,00,34,2.20
2020,12,05,00,35,2.20
2020,12,05,00,36,2.20
2020,12,05,00,37,2.20
2020,12,05,00,38,2.20
2020,12,05,00,39,2.20
2020,12,05,00,40,2.20
2020,12,05,00,41,2.20
2020,12,05,00,42,2.20
2020,12,05,00,43,2.20
2020,12,05,00,44,2.20
2020,12,05,00,45,2.20
2020,12,05,00,46,2.20
2020,12,05,00,47,2.20
2020,12,05,00,48,2.20
2020,12,05,00,49,2.20
2020,12,05,00,50,2.20
2020,12,05,00,51,2.20
2020,12,05,00,52,2.20
2020,12,05,00,53,2.20
2020,12,05,00,54,2.30
2020,12,05,00,55,2.30
2020,12,05,00,56,2.30
2020,12,05,00,57,2.30
2020,12,05,00,58,2.30
2020,12,05,00,59,2.30
2020,12,05,01,00,2.30
2020,12,05,01,01,2.30
2020,12,05,01,02,2.30
2020,12,05,01,03,2.30
2020,12,05,01,04,2.30
2020,12,05,01,05,2.30
2020,12,05,01,06,2.40
2020,12,05,01,07,2.40
2020,12,05,01,08,2.40
2020,12,05,01,09,2.40
2020,12,05,01,10,2.40
2020,12,05,01,11,2.40
2020,12,05,01,12,2.40
2020,12,05,01,13,2.40
2020,12,05,01,14,2.40
2020,12,05,01,15,2.40
2020,12,05,01,16,2.40
2020,12,05,01,17,2.40
2020,12,05,01,18,2.40
2020,12,05,01,19,2.40
2020,12,05,01,20,2.40
2020,12,05,01,21,2.40
2020,12,05,01,22,2.40
2020,12,05,01,23,2.40
2020,12,05,01,24,2.40
2020,12,05,01,25,2.50
2020,12,05,01,26,2.50
2020,12,05,01,27,2.60
2020,12,05,01,28,2.70
2020,12,05,01,29,2.80
2020,12,05,01,30,3.00
2020,12,05,01,31,3.20
2020,12,05,01,32,3.20
2020,12,05,01,33,3.30
2020,12,05,01,34,3.30
2020,12,05,01,35,3.40
2020,12,05,01,36,3.40
2020,12,05,01,37,3.40
2020,12,05,01,38,3.40
2020,12,05,01,39,3.40
2020,12,05,01,40,3.40
2020,12,05,01,41,3.40
2020,12,05,01,42,3.50
2020,12,05,01,43,3.60
2020,12,05,01,44,3.60
2020,12,05,01,45,3.60
2020,12,05,01,46,3.70
2020,12,05,01,47,3.70
2020,12,05,01,48,3.70
2020,12,05,01,49,3.70
2020,12,05,01,50,3.70
2020,12,05,01,51,3.70
2020,12,05,01,52,3.60
2020,12,05,01,53,3.50
2020,12,05,01,54,3.50
2020,12,05,01,55,3.40
2020,12,05,01,56,3.40
2020,12,05,01,57,3.30
2020,12,05,01,58,3.30
2020,12,05,01,59,3.20
2020,12,05,02,00,3.20
2020,12,05,02,01,3.20
2020,12,05,02,02,3.20
2020,12,05,02,03,3.20
2020,12,05,02,04,3.30
2020,12,05,02,05,3.40
2020,12,05,02,06,3.40
2020,12,05,02,07,3.50
2020,12,05,02,08,3.60
2020,12,05,02,09,3.70
2020,12,05,02,10,3.70
2020,12,05,02,11,3.70
2020,12,05,02,12,3.60
2020,12,05,02,13,3.60
2020,12,05,02,14,3.50
2020,12,05,02,15,3.50
2020,12,05,02,16,3.50
2020,12,05,02,17,3.40
2020,12,05,02,18,3.40
2020,12,05,02,19,3.30
2020,12,05,02,20,3.30
2020,12,05,02,21,3.20
2020,12,05,02,22,3.20
2020,12,05,02,23,3.10
2020,12,05,02,24,3.10
2020,12,05,02,25,3.00
2020,12,05,02,26,2.90
2020,12,05,02,27,2.90
2020,12,05,02,28,2.80
2020,12,05,02,29,2.80
2020,12,05,02,30,2.80
2020,12,05,02,31,2.70
2020,12,05,02,32,2.70
2020,12,05,02,33,2.70
2020,12,05,02,34,2.70
2020,12,05,02,35,2.60
2020,12,05,02,36,2.60
2020,12,05,02,37,2.60
2020,12,05,02,38,2.60
2020,12,05,02,39,2.60
2020,12,05,02,40,2.60
2020,12,05,02,41,2.60
2020,12,05,02,42,2.70
2020,12,05,02,43,2.80
2020,12,05,02,44,2.90
2020,12,05,02,45,2.90
2020,12,05,02,46,3.00
2020,12,05,02,47,3.10
2020,12,05,02,48,3.10
2020,12,05,02,49,3.10
2020,12,05,02,50,3.20
2020,12,05,02,51,3.20
2020,12,05,02,52,3.20
2020,12,05,02,53,3.20
2020,12,05,02,54,3.30
2020,12,05,02,55,3.30
2020,12,05,02,56,3.30
2020,12,05,02,57,3.40
2020,12,05,02,58,3.40
2020,12,05,02,59,3.50
2020,12,05,03,00,3.60
2020,12,05,03,01,3.70
2020,12,05,03,02,3.80
2020,12,05,03,03,3.80
2020,12,05,03,04,3.90
2020,12,05,03,05,3.90
2020,12,05,03,06,4.00
2020,12,05,03,07,4.00
2020,12,05,03,08,4.00
2020,12,05,03,09,4.00
2020,12,05,03,10,4.00
2020,12,05,03,11,4.00
2020,12,05,03,12,4.00
2020,12,05,03,13,4.00
2020,12,05,03,14,4.00
2020,12,05,03,15,4.10
2020,12,05,03,16,4.00
2020,12,05,03,17,4.00
2020,12,05,03,18,4.00
2020,12,05,03,19,4.00
2020,12,05,03,20,4.00
2020,12,05,03,21,4.00
2020,12,05,03,22,4.00
2020,12,05,03,23,4.00
2020,12,05,03,24,4.00
2020,12,05,03,25,4.00
2020,12,05,03,26,3.90
2020,12,05,03,27,3.90
2020,12,05,03,28,3.90
2020,12,05,03,29,4.00
2020,12,05,03,30,4.00
2020,12,05,03,31,4.00
2020,12,05,03,32,4.10
2020,12,05,03,33,4.20
2020,12,05,03,34,4.20
2020,12,05,03,35,4.30
2020,12,05,03,36,4.30
2020,12,05,03,37,4.40
2020,12,05,03,38,4.40
2020,12,05,03,39,4.50
2020,12,05,03,40,4.60
2020,12,05,03,41,4.60
2020,12,05,03,42,4.50
2020,12,05,03,43,4.50
2020,12,05,03,44,4.40
2020,12,05,03,45,4.40
2020,12,05,03,46,4.40
2020,12,05,03,47,4.40
2020,12,05,03,48,4.40
2020,12,05,03,49,4.40
2020,12,05,03,50,4.40
2020,12,05,03,51,4.40
2020,12,05,03,52,4.40
2020,12,05,03,53,4.40
2020,12,05,03,54,4.40
2020,12,05,03,55,4.40
2020,12,05,03,56,4.50
2020,12,05,03,57,4.50
2020,12,05,03,58,4.60
2020,12,05,03,59,4.60
2020,12,05,04,00,4.60
2020,12,05,04,01,4.60
2020,12,05,04,02,4.60
2020,12,05,04,03,4.60
2020,12,05,04,04,4.50
2020,12,05,04,05,4.40
2020,12,05,04,06,4.30
2020,12,05,04,07,4.20
2020,12,05,04,08,4.20
2020,12,05,04,09,4.10
2020,12,05,04,10,4.00
2020,12,05,04,11,3.80
2020,12,05,04,12,3.80
2020,12,05,04,13,3.70
2020,12,05,04,14,3.70
2020,12,05,04,15,3.70
2020,12,05,04,16,3.70
2020,12,05,04,17,3.80
2020,12,05,04,18,3.90
2020,12,05,04,19,3.90
2020,12,05,04,20,3.90
2020,12,05,04,21,3.90
2020,12,05,04,22,3.90
2020,12,05,04,23,3.90
2020,12,05,04,24,3.90
2020,12,05,04,25,3.90
2020,12,05,04,26,4.00
2020,12,05,04,27,4.10
2020,12,05,04,28,4.20
2020,12,05,04,29,4.30
2020,12,05,04,30,4.30
2020,12,05,04,31,4.30
2020,12,05,04,32,4.30
2020,12,05,04,33,4.30
2020,12,05,04,34,4.30
2020,12,05,04,35,4.30
2020,12,05,04,36,4.30
2020,12,05,04,37,4.30
2020,12,05,04,38,4.30
2020,12,05,04,39,4.30
2020,12,05,04,40,4.30
2020,12,05,04,41,4.30
2020,12,05,04,42,4.40
2020,12,05,04,43,4.40
2020,12,05,04,44,4.40
2020,12,05,04,45,4.50
2020,12,05,04,46,4.50
2020,12,05,04,47,4.50
2020,12,05,04,48,4.50
2020,12,05,04,49,4.40
2020,12,05,04,50,4.40
2020,12,05,04,51,4.30
2020,12,05,04,52,4.30
2020,12,05,04,53,4.30
2020,12,05,04,54,4.30
2020,12,05,04,55,4.30
2020,12,05,04,56,4.30
2020,12,05,04,57,4.30
2020,12,05,04,58,4.30
2020,12,05,04,59,4.30
2020,12,05,05,00,4.40
2020,12,05,05,01,4.40
2020,12,05,05,02,4.50
2020,12,05,05,03,4.50
2020,12,05,05,04,4.50
2020,12,05,05,05,4.60
2020,12,05,05,06,4.60
2020,12,05,05,07,4.60
2020,12,05,05,08,4.70
2020,12,05,05,09,4.70
2020,12,05,05,10,4.80
2020,12,05,05,11,4.80
2020,12,05,05,12,4.80
2020,12,05,05,13,4.80
2020,12,05,05,14,4.80
2020,12,05,05,15,4.80
2020,12,05,05,16,4.70
2020,12,05,05,17,4.70
2020,12,05,05,18,4.60
2020,12,05,05,19,4.50
2020,12,05,05,20,4.40
2020,12,05,05,21,4.30
2020,12,05,05,22,4.20
2020,12,05,05,23,4.10
2020,12,05,05,24,4.00
2020,12,05,05,25,3.90
2020,12,05,05,26,3.80
2020,12,05,05,27,3.70
2020,12,05,05,28,3.60
2020,12,05,05,29,3.50
2020,12,05,05,30,3.50
2020,12,05,05,31,3.40
2020,12,05,05,32,3.40
2020,12,05,05,33,3.30
2020,12,05,05,34,3.30
2020,12,05,05,35,3.30
2020,12,05,05,36,3.20
2020,12,05,05,37,3.20
2020,12,05,05,38,3.20
2020,12,05,05,39,3.20
2020,12,05,05,40,3.20
2020,12,05,05,41,3.20
2020,12,05,05,42,3.20
2020,12,05,05,43,3.20
2020,12,05,05,44,3.20
2020,12,05,05,45,3.20
2020,12,05,05,46,3.10
2020,12,05,05,47,3.10
2020,12,05,05,48,3.10
2020,12,05,05,49,3.10
2020,12,05,05,50,3.10
2020,12,05,05,51,3.10
2020,12,05,05,52,3.10
2020,12,05,05,53,3.10
2020,12,05,05,54,3.00
2020,12,05,05,55,3.00
2020,12,05,05,56,3.00
2020,12,05,05,57,3.00
2020,12,05,05,58,3.00
2020,12,05,05,59,3.10
2020,12,05,06,00,3.10
2020,12,05,06,01,3.20
2020,12,05,06,02,3.30
2020,12,05,06,03,3.40
2020,12,05,06,04,3.40
2020,12,05,06,05,3.50
2020,12,05,06,06,3.60
2020,12,05,06,07,3.60
2020,12,05,06,08,3.70
2020,12,05,06,09,3.70
2020,12,05,06,10,3.70
2020,12,05,06,11,3.70
2020,12,05,06,12,3.70
2020,12,05,06,13,3.60
2020,12,05,06,14,3.70
2020,12,05,06,15,3.60
2020,12,05,06,16,3.60
2020,12,05,06,17,3.50
2020,12,05,06,18,3.50
2020,12,05,06,19,3.40
2020,12,05,06,20,3.40
2020,12,05,06,21,3.40
2020,12,05,06,22,3.30
2020,12,05,06,23,3.30
2020,12,05,06,24,3.30
2020,12,05,06,25,3.30
2020,12,05,06,26,3.30
2020,12,05,06,27,3.30
2020,12,05,06,28,3.30
2020,12,05,06,29,3.30
2020,12,05,06,30,3.30
2020,12,05,06,31,3.30
2020,12,05,06,32,3.30
2020,12,05,06,33,3.30
2020,12,05,06,34,3.30
2020,12,05,06,35,3.30
2020,12,05,06,36,3.20
2020,12,05,06,37,3.20
2020,12,05,06,38,3.20
2020,12,05,06,39,3.20
2020,12,05,06,40,3.20
2020,12,05,06,41,3.10
2020,12,05,06,42,3.10
2020,12,05,06,43,3.00
2020,12,05,06,44,3.00
2020,12,05,06,45,2.90
2020,12,05,06,46,2.90
2020,12,05,06,47,2.80
2020,12,05,06,48,2.80
2020,12,05,06,49,2.80
2020,12,05,06,50,2.80
2020,12,05,06,51,2.80
2020,12,05,06,52,2.80
2020,12,05,06,53,2.80
2020,12,05,06,54,2.70
2020,12,05,06,55,2.70
2020,12,05,06,56,2.70
2020,12,05,06,57,2.70
2020,12,05,06,58,2.70
2020,12,05,06,59,2.60
2020,12,05,07,00,2.60
2020,12,05,07,01,2.60
2020,12,05,07,02,2.60
2020,12,05,07,03,2.60
2020,12,05,07,04,2.60
2020,12,05,07,05,2.50
2020,12,05,07,06,2.50
2020,12,05,07,07,2.50
2020,12,05,07,08,2.50
2020,12,05,07,09,2.50
2020,12,05,07,10,2.50
2020,12,05,07,11,2.40
2020,12,05,07,12,2.40
2020,12,05,07,13,2.40
2020,12,05,07,14,2.50
2020,12,05,07,15,2.50
2020,12,05,07,16,2.50
2020,12,05,07,17,2.40
2020,12,05,07,18,2.40
2020,12,05,07,19,2.40
2020,12,05,07,20,2.40
2020,12,05,07,21,2.40
2020,12,05,07,22,2.40
2020,12,05,07,23,2.40
2020,12,05,07,24,2.40
2020,12,05,07,25,2.30
2020,12,05,07,26,2.30
2020,12,05,07,27,2.30
2020,12,05,07,28,2.30
2020,12,05,07,29,2.30
2020,12,05,07,30,2.30
2020,12,05,07,31,2.30
2020,12,05,07,32,2.30
2020,12,05,07,33,2.20
2020,12,05,07,34,2.20
2020,12,05,07,35,2.20
2020,12,05,07,36,2.20
2020,12,05,07,37,2.20
2020,12,05,07,38,2.20
2020,12,05,07,39,2.20
2020,12,05,07,40,2.20
2020,12,05,07,41,2.20
2020,12,05,07,42,2.20
2020,12,05,07,43,2.20
2020,12,05,07,44,2.20
2020,12,05,07,45,2.20
2020,12,05,07,46,2.20
2020,12,05,07,47,2.20
2020,12,05,07,48,2.20
2020,12,05,07,49,2.20
2020,12,05,07,50,2.20
2020,12,05,07,51,2.20
2020,12,05,07,52,2.10
2020,12,05,07,53,2.10
2020,12,05,07,54,2.10
2020,12,05,07,55,2.10
2020,12,05,07,56,2.10
2020,12,05,07,57,2.10
2020,12,05,07,58,2.10
2020,12,05,07,59,2.00
2020,12,05,08,00,2.00
2020,12,05,08,01,2.00
2020,12,05,08,02,1.90
2020,12,05,08,03,1.90
2020,12,05,08,04,1.90
2020,12,05,08,05,1.90
2020,12,05,08,06,1.90
2020,12,05,08,07,1.90
2020,12,05,08,08,1.90
2020,12,05,08,09,1.90
2020,12,05,08,10,1.80
2020,12,05,08,11,1.80
2020,12,05,08,12,1.80
2020,12,05,08,13,1.80
2020,12,05,08,14,1.80
2020,12,05,08,15,1.80
2020,12,05,08,16,1.80
2020,12,05,08,17,1.80
2020,12,05,08,18,1.80
2020,12,05,08,19,1.80
2020,12,05,08,20,1.80
2020,12,05,08,21,1.80
2020,12,05,08,22,1.80
2020,12,05,08,23,1.80
2020,12,05,08,24,1.80
2020,12,05,08,25,1.80
2020,12,05,08,26,1.80
2020,12,05,08,27,1.80
2020,12,05,08,28,1.80
2020,12,05,08,29,1.80
2020,12,05,08,30,1.80
2020,12,05,08,31,1.80
2020,12,05,08,32,1.80
2020,12,05,08,33,1.80
2020,12,05,08,34,1.80
2020,12,05,08,35,1.80
2020,12,05,08,36,1.80
2020,12,05,08,37,1.80
2020,12,05,08,38,1.80
2020,12,05,08,39,1.80
2020,12,05,08,40,1.80
2020,12,05,08,41,1.80
2020,12,05,08,42,1.80
2020,12,05,08,43,1.80
2020,12,05,08,44,1.80
2020,12,05,08,45,1.80
2020,12,05,08,46,1.80
2020,12,05,08,47,1.90
2020,12,05,08,48,1.90
2020,12,05,08,49,1.90
2020,12,05,08,50,1.90
2020,12,05,08,51,1.90
2020,12,05,08,52,1.90
2020,12,05,08,53,1.90
2020,12,05,08,54,1.90
2020,12,05,08,55,1.90
2020,12,05,08,56,1.90
2020,12,05,08,57,1.90
2020,12,05,08,58,1.90
2020,12,05,08,59,1.90
2020,12,05,09,00,1.90
2020,12,05,09,01,1.90
2020,12,05,09,02,1.90
2020,12,05,09,03,1.90
2020,12,05,09,04,1.90
2020,12,05,09,05,1.90
2020,12,05,09,06,1.90
2020,12,05,09,07,2.00
2020,12,05,09,08,2.00
2020,12,05,09,09,2.00
2020,12,05,09,10,2.00
2020,12,05,09,11,2.10
2020,12,05,09,12,2.10
2020,12,05,09,13,2.10
2020,12,05,09,14,2.10
2020,12,05,09,15,2.10
2020,12,05,09,16,2.10
2020,12,05,09,17,2.20
2020,12,05,09,18,2.20
2020,12,05,09,19,2.20
2020,12,05,09,20,2.20
2020,12,05,09,21,2.20
2020,12,05,09,22,2.20
2020,12,05,09,23,2.30
2020,12,05,09,24,2.30
2020,12,05,09,25,2.40
2020,12,05,09,26,2.40
2020,12,05,09,27,2.40
2020,12,05,09,28,2.50
2020,12,05,09,29,2.50
2020,12,05,09,30,2.50
2020,12,05,09,31,2.60
2020,12,05,09,32,2.60
2020,12,05,09,33,2.60
2020,12,05,09,34,2.60
2020,12,05,09,35,2.60
2020,12,05,09,36,2.70
2020,12,05,09,37,2.70
2020,12,05,09,38,2.70
2020,12,05,09,39,2.70
2020,12,05,09,40,2.80
2020,12,05,09,41,2.80
2020,12,05,09,42,2.80
2020,12,05,09,43,2.80
2020,12,05,09,44,2.80
2020,12,05,09,45,2.90
2020,12,05,09,46,2.90
2020,12,05,09,47,3.00
2020,12,05,09,48,3.00
2020,12,05,09,49,3.10
2020,12,05,09,50,3.10
2020,12,05,09,51,3.20
2020,12,05,09,52,3.30
2020,12,05,09,53,3.30
2020,12,05,09,54,3.40
2020,12,05,09,55,3.50
2020,12,05,09,56,3.50
2020,12,05,09,57,3.60
2020,12,05,09,58,3.60
2020,12,05,09,59,3.70
2020,12,05,10,00,3.70
2020,12,05,10,01,3.80
2020,12,05,10,02,3.80
2020,12,05,10,03,3.80
2020,12,05,10,04,3.90
2020,12,05,10,05,3.90
2020,12,05,10,06,4.00
2020,12,05,10,07,4.00
2020,12,05,10,08,4.10
2020,12,05,10,09,4.10
2020,12,05,10,10,4.10
2020,12,05,10,11,4.20
2020,12,05,10,12,4.20
2020,12,05,10,13,4.20
2020,12,05,10,14,4.30
2020,12,05,10,15,4.30
2020,12,05,10,16,4.30
2020,12,05,10,17,4.40
2020,12,05,10,18,4.40
2020,12,05,10,19,4.50
2020,12,05,10,20,4.50
2020,12,05,10,21,4.70
2020,12,05,10,22,4.80
2020,12,05,10,23,4.90
2020,12,05,10,24,5.10
2020,12,05,10,25,5.20
2020,12,05,10,26,5.30
2020,12,05,10,27,5.40
2020,12,05,10,28,5.50
2020,12,05,10,29,5.50
2020,12,05,10,30,5.60
2020,12,05,10,31,5.60
2020,12,05,10,32,5.70
2020,12,05,10,33,5.70
2020,12,05,10,34,5.80
2020,12,05,10,35,5.80
2020,12,05,10,36,5.90
2020,12,05,10,37,5.90
2020,12,05,10,38,6.00
2020,12,05,10,39,6.10
2020,12,05,10,40,6.20
2020,12,05,10,41,6.30
2020,12,05,10,42,6.40
2020,12,05,10,43,6.50
2020,12,05,10,44,6.60
2020,12,05,10,45,6.70
2020,12,05,10,46,6.80
2020,12,05,10,47,6.90
2020,12,05,10,48,7.10
2020,12,05,10,49,7.20
2020,12,05,10,50,7.20
2020,12,05,10,51,7.30
2020,12,05,10,52,7.40
2020,12,05,10,53,7.50
2020,12,05,10,54,7.60
2020,12,05,10,55,7.70
2020,12,05,10,56,7.70
2020,12,05,10,57,7.70
2020,12,05,10,58,7.80
2020,12,05,10,59,7.80
2020,12,05,11,00,7.80
2020,12,05,11,01,7.80
2020,12,05,11,02,7.90
2020,12,05,11,03,7.90
2020,12,05,11,04,8.00
2020,12,05,11,05,8.10
2020,12,05,11,06,8.10
2020,12,05,11,07,8.10
2020,12,05,11,08,8.20
2020,12,05,11,09,8.20
2020,12,05,11,10,8.20
2020,12,05,11,11,8.30
2020,12,05,11,12,8.30
2020,12,05,11,13,8.30
2020,12,05,11,14,8.40
2020,12,05,11,15,8.40
2020,12,05,11,16,8.50
2020,12,05,11,17,8.60
2020,12,05,11,18,8.60
2020,12,05,11,19,8.70
2020,12,05,11,20,8.70
2020,12,05,11,21,8.70
2020,12,05,11,22,8.70
2020,12,05,11,23,8.80
2020,12,05,11,24,8.80
2020,12,05,11,25,8.80
2020,12,05,11,26,8.80
2020,12,05,11,27,8.80
2020,12,05,11,28,8.80
2020,12,05,11,29,8.90
2020,12,05,11,30,8.90
2020,12,05,11,31,8.90
2020,12,05,11,32,8.90
2020,12,05,11,33,8.90
2020,12,05,11,34,9.00
2020,12,05,11,35,9.00
2020,12,05,11,36,9.00
2020,12,05,11,37,9.10
2020,12,05,11,38,9.10
2020,12,05,11,39,9.10
2020,12,05,11,40,9.10
2020,12,05,11,41,9.10
2020,12,05,11,42,9.10
2020,12,05,11,43,9.10
2020,12,05,11,44,9.10
2020,12,05,11,45,9.10
2020,12,05,11,46,9.20
2020,12,05,11,47,9.20
2020,12,05,11,48,9.20
2020,12,05,11,49,9.20
2020,12,05,11,50,9.20
2020,12,05,11,51,9.20
2020,12,05,11,52,9.20
2020,12,05,11,53,9.20
2020,12,05,11,54,9.20
2020,12,05,11,55,9.20
2020,12,05,11,56,9.20
2020,12,05,11,57,9.30
2020,12,05,11,58,9.30
2020,12,05,11,59,9.30
2020,12,05,12,00,9.30
2020,12,05,12,01,9.30
2020,12,05,12,02,9.30
2020,12,05,12,03,9.30
2020,12,05,12,04,9.30
2020,12,05,12,05,9.30
2020,12,05,12,06,9.30
2020,12,05,12,07,9.30
2020,12,05,12,08,9.30
2020,12,05,12,09,9.30
2020,12,05,12,10,9.30
2020,12,05,12,11,9.30
2020,12,05,12,12,9.30
2020,12,05,12,13,9.30
2020,12,05,12,14,9.30
2020,12,05,12,15,9.30
2020,12,05,12,16,9.30
2020,12,05,12,17,9.40
2020,12,05,12,18,9.40
2020,12,05,12,19,9.50
2020,12,05,12,20,9.50
2020,12,05,12,21,9.50
2020,12,05,12,22,9.60
2020,12,05,12,23,9.60
2020,12,05,12,24,9.60
2020,12,05,12,25,9.60
2020,12,05,12,26,9.60
2020,12,05,12,27,9.60
2020,12,05,12,28,9.70
2020,12,05,12,29,9.70
2020,12,05,12,30,9.70
2020,12,05,12,31,9.70
2020,12,05,12,32,9.70
2020,12,05,12,33,9.80
2020,12,05,12,34,9.80
2020,12,05,12,35,9.80
2020,12,05,12,36,9.80
2020,12,05,12,37,9.80
2020,12,05,12,38,9.80
2020,12,05,12,39,9.80
2020,12,05,12,40,9.80
2020,12,05,12,41,9.80
2020,12,05,12,42,9.80
2020,12,05,12,43,9.80
2020,12,05,12,44,9.80
2020,12,05,12,45,9.80
2020,12,05,12,46,9.80
2020,12,05,12,47,9.80
2020,12,05,12,48,9.80
2020,12,05,12,49,9.80
2020,12,05,12,50,9.80
2020,12,05,12,51,9.90
2020,12,05,12,52,9.90
2020,12,05,12,53,9.90
2020,12,05,12,54,10.00
2020,12,05,12,55,10.00
2020,12,05,12,56,10.00
2020,12,05,12,57,10.10
2020,12,05,12,58,10.10
2020,12,05,12,59,10.10
2020,12,05,13,00,10.10
2020,12,05,13,01,10.10
2020,12,05,13,02,10.00
2020,12,05,13,03,10.00
2020,12,05,13,04,10.00
2020,12,05,13,05,9.90
2020,12,05,13,06,9.90
2020,12,05,13,07,9.90
2020,12,05,13,08,9.90
2020,12,05,13,09,9.90
2020,12,05,13,10,9.90
2020,12,05,13,11,9.90
2020,12,05,13,12,9.90
2020,12,05,13,13,9.90
2020,12,05,13,14,10.00
2020,12,05,13,15,10.00
2020,12,05,13,16,10.00
2020,12,05,13,17,10.00
2020,12,05,13,18,10.00
2020,12,05,13,19,10.00
2020,12,05,13,20,10.00
2020,12,05,13,21,10.00
2020,12,05,13,22,10.00
2020,12,05,13,23,9.90
2020,12,05,13,24,9.90
2020,12,05,13,25,9.90
2020,12,05,13,26,9.90
2020,12,05,13,27,10.00
2020,12,05,13,28,10.00
2020,12,05,13,29,10.00
2020,12,05,13,30,10.10
2020,12,05,13,31,10.10
2020,12,05,13,32,10.10
2020,12,05,13,33,10.10
2020,12,05,13,34,10.10
2020,12,05,13,35,10.10
2020,12,05,13,36,10.10
2020,12,05,13,37,10.10
2020,12,05,13,38,10.10
2020,12,05,13,39,10.10
2020,12,05,13,40,10.10
2020,12,05,13,41,10.10
2020,12,05,13,42,10.10
2020,12,05,13,43,10.20
2020,12,05,13,44,10.20
2020,12,05,13,45,10.20
2020,12,05,13,46,10.20
2020,12,05,13,47,10.20
2020,12,05,13,48,10.20
2020,12,05,13,49,10.30
2020,12,05,13,50,10.30
2020,12,05,13,51,10.30
2020,12,05,13,52,10.30
2020,12,05,13,53,10.30
2020,12,05,13,54,10.30
2020,12,05,13,55,10.30
2020,12,05,13,56,10.40
2020,12,05,13,57,10.40
2020,12,05,13,58,10.40
2020,12,05,13,59,10.40
2020,12,05,14,00,10.40
2020,12,05,14,01,10.40
2020,12,05,14,02,10.40
2020,12,05,14,03,10.40
2020,12,05,14,04,10.40
2020,12,05,14,05,10.40
2020,12,05,14,06,10.50
2020,12,05,14,07,10.50
2020,12,05,14,08,10.50
2020,12,05,14,09,10.50
2020,12,05,14,10,10.50
2020,12,05,14,11,10.40
2020,12,05,14,12,10.40
2020,12,05,14,13,10.40
2020,12,05,14,14,10.40
2020,12,05,14,15,10.40
2020,12,05,14,16,10.40
2020,12,05,14,17,10.40
2020,12,05,14,18,10.40
2020,12,05,14,19,10.40
2020,12,05,14,20,10.40
2020,12,05,14,21,10.40
2020,12,05,14,22,10.40
2020,12,05,14,23,10.40
2020,12,05,14,24,10.50
2020,12,05,14,25,10.50
2020,12,05,14,26,10.60
2020,12,05,14,27,10.60
2020,12,05,14,28,10.60
2020,12,05,14,29,10.60
2020,12,05,14,30,10.60
2020,12,05,14,31,10.60
2020,12,05,14,32,10.60
2020,12,05,14,33,10.60
2020,12,05,14,34,10.60
2020,12,05,14,35,10.60
2020,12,05,14,36,10.60
2020,12,05,14,37,10.50
2020,12,05,14,38,10.50
2020,12,05,14,39,10.40
2020,12,05,14,40,10.40
2020,12,05,14,41,10.30
2020,12,05,14,42,10.30
2020,12,05,14,43,10.30
2020,12,05,14,44,10.20
2020,12,05,14,45,10.20
2020,12,05,14,46,10.10
2020,12,05,14,47,10.10
2020,12,05,14,48,10.00
2020,12,05,14,49,10.00
2020,12,05,14,50,9.90
2020,12,05,14,51,9.90
2020,12,05,14,52,9.80
2020,12,05,14,53,9.80
2020,12,05,14,54,9.80
2020,12,05,14,55,9.70
2020,12,05,14,56,9.70
2020,12,05,14,57,9.70
2020,12,05,14,58,9.70
2020,12,05,14,59,9.70
2020,12,05,15,00,9.70
2020,12,05,15,01,9.70
2020,12,05,15,02,9.70
2020,12,05,15,03,9.60
2020,12,05,15,04,9.60
2020,12,05,15,05,9.50
2020,12,05,15,06,9.50
2020,12,05,15,07,9.40
2020,12,05,15,08,9.40
2020,12,05,15,09,9.40
2020,12,05,15,10,9.30
2020,12,05,15,11,9.20
2020,12,05,15,12,9.00
2020,12,05,15,13,8.90
2020,12,05,15,14,8.70
2020,12,05,15,15,8.60
2020,12,05,15,16,8.50
2020,12,05,15,17,8.40
2020,12,05,15,18,8.40
2020,12,05,15,19,8.40
2020,12,05,15,20,8.40
2020,12,05,15,21,8.40
2020,12,05,15,22,8.30
2020,12,05,15,23,8.30
2020,12,05,15,24,8.30
2020,12,05,15,25,8.30
2020,12,05,15,26,8.30
2020,12,05,15,27,8.20
2020,12,05,15,28,8.20
2020,12,05,15,29,8.10
2020,12,05,15,30,8.10
2020,12,05,15,31,8.00
2020,12,05,15,32,7.90
2020,12,05,15,33,7.90
2020,12,05,15,34,7.80
2020,12,05,15,35,7.70
2020,12,05,15,36,7.70
2020,12,05,15,37,7.70
2020,12,05,15,38,7.60
2020,12,05,15,39,7.60
2020,12,05,15,40,7.50
2020,12,05,15,41,7.50
2020,12,05,15,42,7.40
2020,12,05,15,43,7.40
2020,12,05,15,44,7.40
2020,12,05,15,45,7.30
2020,12,05,15,46,7.30
2020,12,05,15,47,7.30
2020,12,05,15,48,7.20
2020,12,05,15,49,7.20
2020,12,05,15,50,7.20
2020,12,05,15,51,7.10
2020,12,05,15,52,7.10
2020,12,05,15,53,7.00
2020,12,05,15,54,6.90
2020,12,05,15,55,6.90
2020,12,05,15,56,6.80
2020,12,05,15,57,6.80
2020,12,05,15,58,6.80
2020,12,05,15,59,6.70
2020,12,05,16,00,6.70
2020,12,05,16,01,6.60
2020,12,05,16,02,6.60
2020,12,05,16,03,6.60
2020,12,05,16,04,6.50
2020,12,05,16,05,6.50
2020,12,05,16,06,6.40
2020,12,05,16,07,6.40
2020,12,05,16,08,6.40
2020,12,05,16,09,6.40
2020,12,05,16,10,6.40
2020,12,05,16,11,6.30
2020,12,05,16,12,6.30
2020,12,05,16,13,6.30
2020,12,05,16,14,6.30
2020,12,05,16,15,6.20
2020,12,05,16,16,6.20
2020,12,05,16,17,6.20
2020,12,05,16,18,6.20
2020,12,05,16,19,6.10
2020,12,05,16,20,6.10
2020,12,05,16,21,6.10
2020,12,05,16,22,6.10
2020,12,05,16,23,6.00
2020,12,05,16,24,6.00
2020,12,05,16,25,5.90
2020,12,05,16,26,5.90
2020,12,05,16,27,5.90
2020,12,05,16,28,5.80
2020,12,05,16,29,5.80
2020,12,05,16,30,5.80
2020,12,05,16,31,5.70
2020,12,05,16,32,5.70
2020,12,05,16,33,5.70
2020,12,05,16,34,5.60
2020,12,05,16,35,5.60
2020,12,05,16,36,5.60
2020,12,05,16,37,5.60
2020,12,05,16,38,5.60
2020,12,05,16,39,5.50
2020,12,05,16,40,5.50
2020,12,05,16,41,5.40
2020,12,05,16,42,5.40
2020,12,05,16,43,5.30
2020,12,05,16,44,5.30
2020,12,05,16,45,5.30
2020,12,05,16,46,5.20
2020,12,05,16,47,5.20
2020,12,05,16,48,5.20
2020,12,05,16,49,5.20
2020,12,05,16,50,5.20
2020,12,05,16,51,5.20
2020,12,05,16,52,5.10
2020,12,05,16,53,5.10
2020,12,05,16,54,5.00
2020,12,05,16,55,5.00
2020,12,05,16,56,4.90
2020,12,05,16,57,4.90
2020,12,05,16,58,4.90
2020,12,05,16,59,4.90
2020,12,05,17,00,4.90
2020,12,05,17,01,4.80
2020,12,05,17,02,4.80
2020,12,05,17,03,4.80
2020,12,05,17,04,4.80
2020,12,05,17,05,4.80
2020,12,05,17,06,4.70
2020,12,05,17,07,4.70
2020,12,05,17,08,4.70
2020,12,05,17,09,4.70
2020,12,05,17,10,4.70
2020,12,05,17,11,4.70
2020,12,05,17,12,4.70
2020,12,05,17,13,4.60
2020,12,05,17,14,4.60
2020,12,05,17,15,4.60
2020,12,05,17,16,4.50
2020,12,05,17,17,4.50
2020,12,05,17,18,4.50
2020,12,05,17,19,4.50
2020,12,05,17,20,4.40
2020,12,05,17,21,4.40
2020,12,05,17,22,4.40
2020,12,05,17,23,4.40
2020,12,05,17,24,4.40
2020,12,05,17,25,4.30
2020,12,05,17,26,4.30
2020,12,05,17,27,4.30
2020,12,05,17,28,4.30
2020,12,05,17,29,4.20
2020,12,05,17,30,4.20
2020,12,05,17,31,4.20
2020,12,05,17,32,4.20
2020,12,05,17,33,4.20
2020,12,05,17,34,4.20
2020,12,05,17,35,4.20
2020,12,05,17,36,4.10
2020,12,05,17,37,4.10
2020,12,05,17,38,4.10
2020,12,05,17,39,4.10
2020,12,05,17,40,4.10
2020,12,05,17,41,4.10
2020,12,05,17,42,4.00
2020,12,05,17,43,4.00
2020,12,05,17,44,4.00
2020,12,05,17,45,4.00
2020,12,05,17,46,4.00
2020,12,05,17,47,4.00
2020,12,05,17,48,4.00
2020,12,05,17,49,4.00
2020,12,05,17,50,4.00
2020,12,05,17,51,4.00
2020,12,05,17,52,4.00
2020,12,05,17,53,3.90
2020,12,05,17,54,3.90
2020,12,05,17,55,3.80
2020,12,05,17,56,3.80
2020,12,05,17,57,3.80
2020,12,05,17,58,3.80
2020,12,05,17,59,3.80
2020,12,05,18,00,3.80
2020,12,05,18,01,3.70
2020,12,05,18,02,3.70